Terminal Aerodrome Forecast
Issued by NWS State College, PA

Home | Current Version | Previous Version | Text Only | Print | Product List | Glossary On
Versions: 1 2 3 4 5 6 7 8 9 10 11 12 13 14 15 16 17 18 19 20 21 22 23 24 25 26 27 28 29 30 31 32 33 34 35 36 37 38 39 40 41 42 43 44 45
000
FTUS41 KCTP 280536
TAFIPT
TAF
KIPT 280536Z 2806/2906 07008KT P6SM OVC045 WS020/25030KT
     FM280800 25005KT 4SM -RA OVC025
     FM281100 26004KT 2SM -RA BR OVC015
     FM281500 29006KT P6SM OVC035=

USA.gov is the U.S. government's official web portal to all federal, state and local government web resources and services.